SL-14 DEB, 47081

Orbit data source: Space-Track

SL-14 DEB, 47081 is space debris in LEO originally from a launch on Thu, 15 Aug 1991 UTC launched from the Plesetsk Missile And Space Complex (PKMTR). Debris objects in space refer to the collection of defunct objects orbiting the Earth. Examples of debris include non-operational satellites, rocket bodies, and fragments generated from explosions, collisions, or faulty payload assembly.

Loading next visibility...
Identifier
47081, 1991-056DF
Orbit
LEO
Country
Flag of CISCIS
Related business
Manufacturer
Unknown
Mission
Spacecraft
Bus & Motor
Unknown
Mass
Unknown
Launch date (UTC)
1991-08-15 (34 years ago)
Launch vehicle
Unknown
Launch site
Plesetsk Missile And Space Complex (PKMTR)
Object type
Payload
Rocket body
Debris
Shape & HBR
Unknown shape, 0.1 m
Radar Cross Section
Small (<0.1 m²)

Expand to show TLE details & history
Last TLE update: 1 day ago

TLE from 1 day ago
0 SL-14 DEB
1 47081U 91056DF  25291.30217986  .00002240  00000-0  36363-2 0  9997
2 47081  82.5793 251.9606 0112821  66.2658 295.0267 13.45158546242543
Epoch: 2025-10-18T07:15Z
TLE epoch observation values (Epoch: 2025-10-18T07:15:08.339Z)
Latitude
-0.00003°
Longitude
116.1407°
Altitude
1,058.108 km
Speed
7.34 km/s
True Right ascension
16h 47m 50s
True Declination
0° 00' 00"
Sunlit
Object was in daylight at epoch
Visualization orbit readout
Latitude
Unknown
Longitude
Unknown
Altitude
Unknown
Speed
Unknown
Apparent Right ascension
Unknown
Apparent Declination
Unknown
Sunlit
N/A
Visualization observer readout
Local Sidereal Time
05:39:28
Azimuth
Unknown
Elevation
Unknown
Doppler factor
Unknown
Orbital elements
Apogee altitude
1,171.555 km
Perigee altitude
1,003.102 km
Semi-major axis
7,465.465 km
Eccentricity
0.01128
Inclination
82.5793°
RAAN
251.9606°
Arg. of periapsis
66.2658°
True anomaly
293.8483°
Mean anomaly
295.0267°
Eccentric anomaly
294.4382°
Mean motion
3.36479 °/min
Orbital period
106.99 mins
BSTAR
0.0036363
Loading maneuver chart data...
Computing Atmospheric mass density...
Loading historical data...
Loading historical data...
Loading historical data...
Loading historical data...
Loading historical data...
Loading historical data...
Loading historical data...

Documentation

Showing up to 5 results
|